User: anonymous   Login
Location: Unspecified
(0.0000°N, 0.0000°E)
Time: 03:52:21
(UTC+02:00)
Language:

AO-40 - Orbit

View from above orbital plane
View from above orbital plane
View from above satellite
View from above satellite

Ground track
Ground track

The orbit data is extracted from the following two-line orbital elements,

1 26609U 00072B   17171.83239906 -.00000014 +00000-0 +00000-0 0  9995
2 26609 006.4209 219.4406 7928614 129.6153 331.9243 01.25586355076396
Epoch (UTC): 20 June 2017 19:58:39
Eccentricity: 0.7928614
inclination: 6.4209°
perigee height: 1138 km
apogee height: 58682 km
right ascension of ascending node: 219.4406°
argument of perigee: 129.6153°
revolutions per day: 1.25586355
mean anomaly at epoch: 331.9243°
orbit number at epoch: 7639

The dashed part of the orbit path shows where the satellite is in the earth's shadow,  

DLR